Regional Weather Roundup
Issued by NWS

Home | Current Version | Previous Version | Graphics & Text | Print | Product List | Glossary Off
Versions: 1 2 3 4 5 6 7 8 9 10 11 12 13 14 15 16 17 18 19 20 21 22 23 24 25 26 27 28 29 30 31 32 33 34 35 36 37 38 39 40 41 42 43 44 45 46 47 48 49 50

000
ASUS43 KMKX 301911
RWRWI

WISCONSIN REGIONAL WEATHER ROUNDUP
NATIONAL WEATHER SERVICE MILWAUKEE/SULLIVAN WI
200 PM CDT SAT AUG 30 2014

NOTE: "FAIR" INDICATES FEW OR NO CLOUDS BELOW 12,000 FEET WITH NO
SIGNIFICANT WEATHER AND/OR OBSTRUCTIONS TO VISIBILITY.

WIZ001-002-006>008-014>016-023>028-302000-
NORTHWEST WISCONSIN

CITY           SKY/WX    TMP DP  RH WIND       PRES   REMARKS
SUPERIOR ARPT  CLOUDY    68  62  80 NE7       29.87R
ASHLAND        CLOUDY    62  59  90 NE9       29.89R
HAYWARD        CLOUDY    65  59  81 N8        29.87R
SIREN          PTSUNNY   70  59  69 NE6       29.87S
RICE LAKE      CLOUDY    65  60  81 N9        29.88R
LADYSMITH      CLOUDY    64  60  88 N9        29.88R
EAU CLAIRE     CLOUDY    69  64  84 N7        29.83R
MENOMONIE      CLOUDY    70  63  80 N8        29.85R
NEW RICHMOND   CLOUDY    67  62  83 NW8       29.87S
OSCEOLA        CLOUDY    68  64  85 NW7       29.90S
$$

WIZ003>005-009-010-017-018-302000-
NORTH CENTRAL WISCONSIN

CITY           SKY/WX    TMP DP  RH WIND       PRES   REMARKS
WOODRUFF       CLOUDY    62  60  93 N12       29.85R FOG
RHINELANDER    CLOUDY    63  61  93 N8        29.83R
EAGLE RIVER    CLOUDY    63  61  94 N10       29.83R
LAND O LAKES   CLOUDY    60  59  95 N8        29.84S
PHILLIPS       CLOUDY    62  59  91 N7        29.84S
TOMAHAWK       CLOUDY    64  60  88 NW7       29.83R
MEDFORD        CLOUDY    68  63  84 NW6       29.82R
MERRILL        CLOUDY    70  64  82 N10       29.81R
$$

WIZ029-030-035-036-043>047-302000-
CENTRAL WISCONSIN

CITY           SKY/WX    TMP DP  RH WIND       PRES   REMARKS
WAUSAU         CLOUDY    73  64  73 NW9       29.78R
MOSINEE        NOT AVBL
MARSHFIELD     CLOUDY    75  65  70 NW7       29.80S
STEVENS POINT  LGT RAIN  66  65  94 NW3       29.80S
WAUPACA        LGT RAIN  77  67  69 W9        29.78S
WAUTOMA        LGT RAIN  73  69  87 NW9       29.79S
WISC RAPIDS    PTSUNNY   75  67  76 W6        29.81R
CAMP DOUGLAS   PTSUNNY   75  70  83 NW8       29.81R
$$

WIZ011>013-019>022-031-037>040-048>050-302000-
NORTHEAST WISCONSIN

CITY           SKY/WX    TMP DP  RH WIND       PRES   REMARKS
ANTIGO         CLOUDY    71  64  79 NW7       29.80R
STURGEON BAY   PTSUNNY   73  66  78 SW12      29.74S
GREEN BAY      PTSUNNY   76  68  76 NW9       29.75S
MANITOWOC      LGT RAIN  71  68  90 SW8       29.76S
APPLETON       PTSUNNY   75  63  64 W9        29.77S
CLINTONVILLE   RAIN      73  64  73 W8        29.77R
OSHKOSH        CLOUDY    73  67  81 NW6       29.77R
$$

WIZ032>034-041-042-053>061-302000-
SOUTHWEST WISCONSIN

CITY           SKY/WX    TMP DP  RH WIND       PRES   REMARKS
LA CROSSE      LGT RAIN  75  66  73 NW9       29.83R
SPARTA         PTSUNNY   75  64  68 W9        29.82S
VIROQUA        CLOUDY    76  68  77 W8        29.85R
BOSCOBEL       MOSUNNY   81  66  60 W10       29.83R HX  83
PRAIRIE DU CHI CLOUDY    79  63  57 W10       29.83S HX  80
PLATTEVILLE    FAIR      77  69  75 W13       29.87S
$$

WIZ056-057-062-063-064-067-068-302000-
SOUTH CENTRAL WISCONSIN

CITY           SKY/WX    TMP DP  RH WIND       PRES   REMARKS
BARABOO/DELLS  PTSUNNY   70  66  88 NW5       29.82R
LONE ROCK      PTSUNNY   81  68  64 W15       29.82R HX  84
WATERTOWN      CLOUDY    78  67  71 SW14G20   29.80S
MADISON        PTSUNNY   77  67  71 W9        29.80S
MIDDLETON      MOCLDY    76  71  86 W10       29.82R
MONROE         MOSUNNY   77  64  65 W16       29.84S
JANESVILLE     RAIN      73  68  83 SW9       29.83R
$$

WIZ051-052-058>065-066-070>072-302000-
SOUTHEAST WISCONSIN

CITY           SKY/WX    TMP DP  RH WIND       PRES   REMARKS
MILWAUKEE      LGT RAIN  77  69  76 W13       29.80F
WAUKESHA       PTSUNNY   70  66  88 SW12G17   29.82R
MILWAUKEE/TIMM NOT AVBL
RACINE         CLOUDY    78  65  63 SW15G25   29.83R HX  80
BURLINGTON     LGT RAIN  70  67  92 SW13      29.83R
KENOSHA        CLOUDY    77  67  71 SW18G26   29.83R
FOND DU LAC    LGT RAIN  71  68  90 SW5       29.78S FOG
SHEBOYGAN      MOSUNNY   78  68  71 SW10      29.77S HX  80
WEST BEND      CLOUDY    75  64  69 W8        29.79S
JUNEAU         RAIN      68  66  93 W6G26     29.82R
$$

LSZ147-162-302000-
LAKE SUPERIOR

STATION/POSITION TIME  TEMP    WIND        PRES    WAVE
                       AIR SEA DIR/SP/G            HT/PER
                 (UTC) (F)     (DEG/KT/KT) (MB)    (FT/S)
W MID LAKE BUOY  1850   60 58   10/  8/ 10 1011.3R   1/ 3
DEVILS ISLAND    1900   60      20/  1/  2 1011.9R
PORT WING        1800   64     360/  6/  6 1011.5
SAXON HARBOR     1840   62      50/  9/ 13 1011.5S
$$

LMZ867-665-643>646-302000-
LAKE MICHIGAN

STATION/POSITION TIME  TEMP    WIND        PRES    WAVE
                       AIR SEA DIR/SP/G            HT/PER
                 (UTC) (F)     (DEG/KT/KT) (MB)    (FT/S)
N MID LAKE BUOY  1850   67 65  200/ 16/ 19 1006.5R   4/ 6
NORTHPORT PIER   1800   68     170/  5/ 10 1006.8S
SISTER BAY       1841   74     180/  7/  8   N/A
KEWAUNEE LAKESHO 1800   69     210/  8/ 11 1006.2F
SHEBOYGAN LAKESH 1900   76 58  240/ 15/ 16 1007.6S
ATWATER BUOY     1900   69     240/  8/ 10 1009.9F
MILWAUKEE LAKESH 1800   72     270/ 16/ 19   N/A
S MID LAKE BUOY  1750   72 69  190/ 17/ 21   N/A
KENOSHA   LAKESH 1900   78     240/ 15/ 24 1009.8R
$$

TC  - TEMPERATURE IN CELSIUS
VSB - VISIBILITY IN STATUTE MILES
WCI - WIND CHILL INDEX
HX  - HEAT INDEX



USA.gov is the U.S. government's official web portal to all federal, state and local government web resources and services.